This demonstration page uses our WeatherBlox Daily Observations layout. Learn more.

Left ArrowRight Arrow

41.55636, -103.73856

Hourly Observations for April 22, 2020

Temp ( °F °C ) Dew Point ( °F °C ) Humidity (%) Winds ( mph kmh ) Pressure ( in mb ) Visibility ( mi km ) Precip ( " mm )
6:58 pm 18:58 Partly Cloudy 68 20.2 25 -3.8 20 20 E 5 7 29.80 1009 10 16 0.00 0.00
7:58 pm 19:58 Partly Cloudy 60 15.4 27 -2.8 29 29 ESE 9 15 29.80 1009 10 16 0.00 0.00
8:58 pm 20:58 Mostly Cloudy 57 13.7 36 2.3 46 46 SSW 22 35 29.82 1010 10 16 0.00 0.00
9:58 pm 21:58 Clear 52 11.2 38 3.1 58 58 SSW 23 37 29.83 1010 10 16 0.00 0.00
10:58 pm 22:58 Clear 50 10.2 37 3 61 61 SSW 20 31 29.81 1010 10 16 0.00 0.00
11:58 pm 23:58 Clear 49 9.5 39 3.8 68 68 SW 20 31 29.81 1010 10 16 0.00 0.00
1:58 am 01:58 Clear 47 8.2 38 3.1 71 71 W 6 9 29.80 1009 10 16 0.00 0.00
2:58 am 02:58 Clear 41 5.1 35 1.9 80 80 W 3 6 29.81 1009 10 16 0.00 0.00
3:58 am 03:58 Clear 41 5.2 34 1 75 75 W 8 13 29.82 1010 10 16 0.00 0.00
4:58 am 04:58 Clear 40 4.2 31 -0.8 70 70 W 7 11 29.84 1010 10 16 0.00 0.00
5:58 am 05:58 Clear 40 4.6 30 -1.3 66 66 W 8 13 29.85 1011 10 16 0.00 0.00
6:58 am 06:58 Mostly Sunny 40 4.6 30 -0.9 68 68 WSW 7 11 29.88 1012 10 16 0.00 0.00
7:58 am 07:58 Mostly Sunny 48 8.7 32 -0.2 54 54 W 9 15 29.89 1012 10 16 0.00 0.00
8:58 am 08:58 Mostly Sunny 52 11.3 30 -0.9 43 43 WNW 9 15 29.90 1013 10 16 0.00 0.00
9:58 am 09:58 Sunny 59 15.2 31 -0.3 35 35 NW 10 17 29.90 1013 10 16 0.00 0.00
10:58 am 10:58 Sunny 64 17.9 28 -2.5 25 25 N 14 22 29.89 1012 10 16 0.00 0.00
11:58 am 11:58 Partly Cloudy 66 19.1 27 -2.8 23 23 N 7 11 29.88 1012 10 16 0.00 0.00
12:58 pm 12:58 Mostly Cloudy 66 18.7 27 -3 23 23 N 8 13 29.87 1012 10 16 0.00 0.00
1:58 pm 13:58 Mostly Cloudy 67 19.5 24 -4.6 19 19 NW 13 20 29.84 1011 10 16 0.00 0.00
2:58 pm 14:58 Partly Cloudy 68 19.9 26 -3.3 21 21 N 14 22 29.83 1010 10 16 0.00 0.00
3:58 pm 15:58 Partly Cloudy 67 19.6 23 -5.1 18 18 N 15 24 29.81 1009 10 16 0.00 0.00
4:58 pm 16:58 Mostly Sunny 67 19.7 24 -4.5 19 19 WNW 15 24 29.82 1010 10 16 0.00 0.00
5:58 pm 17:58 Mostly Sunny 67 19.3 21 -6.2 17 17 NW 14 22 29.83 1010 10 16 0.00 0.00

Powered by AerisWeather